Fort Atkinson, Wisconsin, United States (53538)
Lat: 42.93N, Lon: 88.84W
Wx Zone: WIZ064
Local Info
Past Weather Observations for Wednesday, May 20, 2015

NOTE: This archive is for the closest National Weather Service station to Fort Atkinson. Information may differ from the station used for current weather conditions.

Click here for Long-term Archive

Time Weather Temperature Dewpoint Humidity Pressure Winds Precip Visibility
23:55
Overcast
45°F / 7°C 43°F / 6°C 93% 30.12 in
(1020 mb)
SSW 4.6 mph
(SSW 7 kph)
- 10SM
23:35
Overcast
45°F / 7°C 41°F / 5°C 87% 30.12 in
(1020 mb)
SSW 5.8 mph
(SSW 9 kph)
- 10SM
23:15
Overcast
45°F / 7°C 41°F / 5°C 87% 30.12 in
(1020 mb)
SSW 4.6 mph
(SSW 7 kph)
- 10SM
22:55
Overcast
45°F / 7°C 41°F / 5°C 87% 30.12 in
(1020 mb)
SSW 4.6 mph
(SSW 7 kph)
- 10SM
22:35
Overcast
46°F / 8°C 41°F / 5°C 82% 30.12 in
(1020 mb)
SW 5.8 mph
(SW 9 kph)
- 10SM
22:15
Overcast
46°F / 8°C 41°F / 5°C 82% 30.12 in
(1020 mb)
SSW 6.9 mph
(SSW 11 kph)
- 10SM
21:55
Overcast
46°F / 8°C 41°F / 5°C 82% 30.12 in
(1020 mb)
SSW 8.1 mph
(SSW 13 kph)
- 10SM
21:35
Overcast
46°F / 8°C 41°F / 5°C 82% 30.12 in
(1020 mb)
SSW 5.8 mph
(SSW 9 kph)
- 10SM
21:15
Overcast
46°F / 8°C 41°F / 5°C 82% 30.12 in
(1020 mb)
SW 5.8 mph
(SW 9 kph)
- 10SM
20:55
Overcast
46°F / 8°C 39°F / 4°C 76% 30.12 in
(1020 mb)
SW 5.8 mph
(SW 9 kph)
- 10SM
20:35
Overcast
46°F / 8°C 39°F / 4°C 76% 30.12 in
(1020 mb)
SW 6.9 mph
(SW 11 kph)
- 10SM
20:15
Overcast
46°F / 8°C 37°F / 3°C 71% 30.12 in
(1020 mb)
SW 4.6 mph
(SW 7 kph)
- 10SM
19:55
Overcast
48°F / 9°C 37°F / 3°C 66% 30.12 in
(1020 mb)
SW 5.8 mph
(SW 9 kph)
- 10SM
19:35
Overcast
48°F / 9°C 37°F / 3°C 66% 30.12 in
(1020 mb)
SW 8.1 mph
(SW 13 kph)
- 10SM
19:15
Overcast
48°F / 9°C 36°F / 2°C 62% 30.12 in
(1020 mb)
SW 4.6 mph
(SW 7 kph)
- 10SM
18:55
Overcast
48°F / 9°C 36°F / 2°C 62% 30.12 in
(1020 mb)
SW 3.5 mph
(SW 6 kph)
- 10SM
18:35
Overcast
48°F / 9°C 36°F / 2°C 62% 30.12 in
(1020 mb)
SW 4.6 mph
(SW 7 kph)
- 10SM
18:15
Overcast
50°F / 10°C 34°F / 1°C 54% 30.12 in
(1020 mb)
SW 4.6 mph
(SW 7 kph)
- 10SM
17:55
Overcast
50°F / 10°C 34°F / 1°C 54% 30.12 in
(1020 mb)
SW 4.6 mph
(SW 7 kph)
- 10SM
17:35
Overcast
50°F / 10°C 34°F / 1°C 54% 30.15 in
(1021 mb)
SW 4.6 mph
(SW 7 kph)
- 10SM
17:15
Overcast
50°F / 10°C 36°F / 2°C 58% 30.15 in
(1021 mb)
SW 4.6 mph
(SW 7 kph)
- 10SM
16:55
Overcast
50°F / 10°C 36°F / 2°C 58% 30.15 in
(1021 mb)
Calm - 10SM
16:35
Mostly Cloudy
50°F / 10°C 34°F / 1°C 54% 30.15 in
(1021 mb)
SSW 3.5 mph
(SSW 6 kph)
- 10SM
16:15
Mostly Cloudy
50°F / 10°C 34°F / 1°C 54% 30.18 in
(1022 mb)
SW 3.5 mph
(SW 6 kph)
- 10SM
15:55
Overcast
50°F / 10°C 34°F / 1°C 54% 30.18 in
(1022 mb)
SW 3.5 mph
(SW 6 kph)
- 10SM
15:35
Overcast
50°F / 10°C 32°F / 0°C 50% 30.18 in
(1022 mb)
SSW 4.6 mph
(SSW 7 kph)
- 10SM
15:15
Overcast
50°F / 10°C 32°F / 0°C 50% 30.21 in
(1023 mb)
Calm - 10SM
14:55
Overcast
50°F / 10°C 30°F / -1°C 47% 30.18 in
(1022 mb)
Calm - 10SM
14:35
Mostly Cloudy
50°F / 10°C 32°F / 0°C 50% 30.21 in
(1023 mb)
NW 5.8 mph
(NW 9 kph)
- 10SM
14:15
Mostly Cloudy
50°F / 10°C 32°F / 0°C 50% 30.21 in
(1023 mb)
W 3.5 mph
(W 6 kph)
- 10SM
13:55
Mostly Cloudy
50°F / 10°C 34°F / 1°C 54% 30.21 in
(1023 mb)
W 6.9 mph
(W 11 kph)
- 10SM
13:35
Mostly Cloudy
50°F / 10°C 36°F / 2°C 58% 30.21 in
(1023 mb)
SSW 5.8 mph
(SSW 9 kph)
- 10SM
13:15
Partly Cloudy
50°F / 10°C 36°F / 2°C 58% 30.21 in
(1023 mb)
Calm - 10SM
12:55
Partly Cloudy
50°F / 10°C 36°F / 2°C 58% 30.21 in
(1023 mb)
W 5.8 mph
(W 9 kph)
- 10SM
12:35
Partly Cloudy
50°F / 10°C 34°F / 1°C 54% 30.21 in
(1023 mb)
Calm - 10SM
12:15
Partly Cloudy
48°F / 9°C 34°F / 1°C 58% 30.24 in
(1024 mb)
Calm - 10SM
11:55
Partly Cloudy
48°F / 9°C 34°F / 1°C 58% 30.24 in
(1024 mb)
Calm - 10SM
11:35
Partly Cloudy
48°F / 9°C 34°F / 1°C 58% 30.24 in
(1024 mb)
Calm - 10SM
11:15
Clear
48°F / 9°C 32°F / 0°C 54% 30.24 in
(1024 mb)
Calm - 10SM
10:55
Partly Cloudy
48°F / 9°C 34°F / 1°C 58% 30.24 in
(1024 mb)
Calm - 10SM
10:35
Partly Cloudy
48°F / 9°C 34°F / 1°C 58% 30.24 in
(1024 mb)
SE 3.5 mph
(SE 6 kph)
- 10SM
10:15
Partly Cloudy
48°F / 9°C 34°F / 1°C 58% 30.24 in
(1024 mb)
Calm - 10SM
09:55
Clear
48°F / 9°C 34°F / 1°C 58% 30.24 in
(1024 mb)
Calm - 10SM
09:35
Clear
48°F / 9°C 34°F / 1°C 58% 30.24 in
(1024 mb)
Calm - 10SM
09:15
Partly Cloudy
46°F / 8°C 34°F / 1°C 62% 30.24 in
(1024 mb)
Calm - 10SM
08:55
Overcast
46°F / 8°C 34°F / 1°C 62% 30.24 in
(1024 mb)
Calm - 10SM
08:35
Partly Cloudy
46°F / 8°C 34°F / 1°C 62% 30.24 in
(1024 mb)
Calm - 10SM
08:15
Partly Cloudy
46°F / 8°C 34°F / 1°C 62% 30.24 in
(1024 mb)
Calm - 10SM
07:55
Clear
46°F / 8°C 36°F / 2°C 66% 30.24 in
(1024 mb)
Calm - 10SM
07:35
Clear
45°F / 7°C 34°F / 1°C 66% 30.24 in
(1024 mb)
Calm - 10SM
07:15
Clear
45°F / 7°C 34°F / 1°C 66% 30.24 in
(1024 mb)
Calm - 10SM
06:55
Clear
45°F / 7°C 34°F / 1°C 66% 30.24 in
(1024 mb)
Calm - 10SM
06:35
Partly Cloudy
43°F / 6°C 34°F / 1°C 71% 30.24 in
(1024 mb)
Calm - 10SM
06:15
Partly Cloudy
41°F / 5°C 34°F / 1°C 76% 30.24 in
(1024 mb)
Calm - 10SM
05:55
Clear
41°F / 5°C 34°F / 1°C 76% 30.24 in
(1024 mb)
Calm - 10SM
05:35
Clear
39°F / 4°C 36°F / 2°C 87% 30.24 in
(1024 mb)
Calm - 10SM
05:15
Clear
37°F / 3°C 36°F / 2°C 93% 30.21 in
(1023 mb)
Calm - 10SM
04:55
Clear
39°F / 4°C 34°F / 1°C 81% 30.24 in
(1024 mb)
Calm - 10SM
04:35
Clear
39°F / 4°C 34°F / 1°C 81% 30.21 in
(1023 mb)
Calm - 10SM
04:15
Clear
39°F / 4°C 34°F / 1°C 81% 30.21 in
(1023 mb)
Calm - 10SM
03:55
Clear
39°F / 4°C 34°F / 1°C 81% 30.21 in
(1023 mb)
Calm - 10SM
03:35
Clear
39°F / 4°C 34°F / 1°C 81% 30.24 in
(1024 mb)
Calm - 10SM
03:15
Clear
37°F / 3°C 34°F / 1°C 87% 30.24 in
(1024 mb)
S 3.5 mph
(S 6 kph)
- 10SM
02:55
Clear
37°F / 3°C 36°F / 2°C 93% 30.24 in
(1024 mb)
Calm - 10SM
02:35
Clear
37°F / 3°C 34°F / 1°C 87% 30.24 in
(1024 mb)
Calm - 10SM
02:15
Clear
37°F / 3°C 36°F / 2°C 93% 30.24 in
(1024 mb)
Calm - 10SM
01:55
Clear
37°F / 3°C 34°F / 1°C 87% 30.24 in
(1024 mb)
Calm - 10SM
01:35
Clear
37°F / 3°C 34°F / 1°C 87% 30.24 in
(1024 mb)
Calm - 10SM
01:15
Clear
37°F / 3°C 34°F / 1°C 87% 30.24 in
(1024 mb)
Calm - 10SM
00:55
Clear
37°F / 3°C 34°F / 1°C 87% 30.24 in
(1024 mb)
Calm - 10SM
00:35
Clear
37°F / 3°C 34°F / 1°C 87% 30.24 in
(1024 mb)
Calm - 10SM
00:15
Clear
37°F / 3°C 34°F / 1°C 87% 30.24 in
(1024 mb)
Calm - 10SM
Time Weather Temperature Dewpoint Humidity Pressure Winds Precip Visibility


Weather for websites

WeatherForYou.com, LLC is not responsible for any damages or problems caused by this service. Current weather conditions are obtained from the closest station including government and personal stations which may have varying degrees of accuracy. Weather forecasts are derived from the NOAA NDFD. Like all things, this site belongs to Jesus Christ... He just trusts us to maintain it. If you have any questions or comments email webmaster@weatherforyou.com

Copyright © 2015, WeatherForYou.com LLC. All rights reserved.